This is the latest recevied weather packets stored in our database for station/object W1LBM. If no packets are shown the sender has not sent any weather packets the latest 10 day(s).
| Time | Temp. | Humidity | Pressure | Rain* | Wind** | Luminosity | Snow |
|---|---|---|---|---|---|---|---|
| 1777580739 | 12.22° C | 88% | 1008.5 hPa | 0 mm | - | 55 W/m² | - |
| 1777580436 | 11.67° C | 88% | 1008.5 hPa | 0 mm | - | 58 W/m² | - |
| 1777580131 | 11.67° C | 88% | 1008.5 hPa | 0 mm | - | 52 W/m² | - |
| 1777579828 | 12.22° C | 88% | 1008.5 hPa | 0 mm | - | 47 W/m² | - |
| 1777579527 | 11.67° C | 88% | 1008.7 hPa | 0 mm | - | 48 W/m² | - |
| 1777579227 | 12.22° C | 87% | 1008.7 hPa | 0 mm | - | 50 W/m² | - |
| 1777578922 | 12.22° C | 87% | 1008.5 hPa | 0 mm | - | 53 W/m² | - |
| 1777578618 | 12.22° C | 87% | 1008.6 hPa | 0 mm | - | 68 W/m² | - |
| 1777578317 | 12.78° C | 87% | 1008.8 hPa | 0 mm | - | 87 W/m² | - |
| 1777578014 | 12.22° C | 85% | 1008.7 hPa | 0 mm | - | 142 W/m² | - |
| 1777577709 | 12.22° C | 88% | 1008.6 hPa | 0 mm | - | 201 W/m² | - |
| 1777577406 | 12.22° C | 88% | 1008.8 hPa | 0 mm | - | 146 W/m² | - |
| 1777577102 | 11.67° C | 89% | 1008.9 hPa | 0 mm | - | 119 W/m² | - |
| 1777576799 | 11.67° C | 89% | 1008.9 hPa | 0 mm | - | 118 W/m² | - |
| 1777576498 | 12.22° C | 92% | 1009 hPa | 0 mm | - | 149 W/m² | - |
| 1777576195 | 11.67° C | 92% | 1008.9 hPa | 0 mm | - | 148 W/m² | - |
| 1777575890 | 11.67° C | 93% | 1009 hPa | 0 mm | - | 126 W/m² | - |
| 1777575587 | 11.11° C | 93% | 1009 hPa | 0 mm | - | 103 W/m² | - |
| 1777575283 | 11.11° C | 92% | 1009.2 hPa | 0 mm | - | 73 W/m² | - |
| 1777574979 | 11.11° C | 93% | 1009.1 hPa | 0 mm | - | 70 W/m² | - |
| 1777574675 | 11.11° C | 92% | 1009 hPa | 0 mm | - | 86 W/m² | - |
| 1777574372 | 11.11° C | 92% | 1009.1 hPa | 0 mm | - | 113 W/m² | - |
| 1777574067 | 11.67° C | 92% | 1009 hPa | 0 mm | - | 107 W/m² | - |
| 1777573763 | 11.11° C | 92% | 1009.2 hPa | 0 mm | - | 105 W/m² | - |
| 1777573459 | 11.11° C | 91% | 1009.1 hPa | 0 mm | - | 94 W/m² | - |
* Rain latest hour (hover to see other rain measurements)
** Current wind speed in m/s (hover to see current wind gust speed)